Location: Sungai Igah
(2.7333°N, 114.2500°E)
Time: 19:05:51
(UTC+00:00)

BLOCK DM-SL R/B - Pass Details

Date: 14 June 2021
Orbit: 717 x 21630 km, 0.1° (Epoch: 26 July)

Event Time Altitude Azimuth Distance (km) Brightness Sun altitude
Exits shadow 21:26:53 - 267° (W) 7,491 7.5 -11.8°
Reaches altitude 10° 21:29:16 10° 267° (W) 6,584 7.2 -11.3°
Maximum altitude 21:43:10 73° 184° (S) 1,199 3.9 -8.1°
Drops below altitude 10° 21:47:45 10° 98° (E) 2,320 6.5 -7.1°
Sets 21:49:30 0° 95° (E) 3,120 7.4 -6.7°
